Waarnemingen

Advertentie
Mijn weer
Herstmonceux, Groot Brittannië (3882): temperatuur & dauwpunt: 15.02.2018 13:00:00 - 21.02.2018 13:00:00 (GMT)Herstmonceux, Groot Brittannië (3882): temperatuur -20cm & temperatuur -100cm: 15.02.2018 13:00:00 - 21.02.2018 13:00:00 (GMT)Herstmonceux, Groot Brittannië (3882): windsnelheid: 15.02.2018 13:00:00 - 21.02.2018 13:00:00 (GMT)Herstmonceux, Groot Brittannië (3882): windrichting: 15.02.2018 13:00:00 - 21.02.2018 13:00:00 (GMT)Herstmonceux, Groot Brittannië (3882): luchtdruk: 15.02.2018 13:00:00 - 21.02.2018 13:00:00 (GMT)Herstmonceux, Groot Brittannië (3882): zicht: 15.02.2018 13:00:00 - 21.02.2018 13:00:00 (GMT)Herstmonceux, Groot Brittannië (3882): Zonneschijnduur: 15.02.2018 13:00:00 - 21.02.2018 13:00:00 (GMT)Herstmonceux, Groot Brittannië (3882): neerslag: 15.02.2018 13:00:00 - 21.02.2018 13:00:00 (GMT)
Datum & Tijd tt [°C] td [°C] tt -20cm [°C] tt -100cm [°C] ff [km/u] ff [kn] dd ppp [hPa] vv [km] sd [min] rr [mm]
21.02.2018 13:00:00 - - - - - - - - - - -
21.02.2018 12:00:00 6,1 0,8 - - 15 8 O 1026,9 8 36 0,0
21.02.2018 11:00:00 5,7 1,5 - - 9 5 NO 1027,0 7 60 0,0
21.02.2018 10:00:00 4,6 2,1 - - 9 5 NNO 1027,1 5 60 0,0
21.02.2018 09:00:00 2,4 1,2 6,7 7,0 8 4 NNO 1026,9 4,5 36 0,0
21.02.2018 08:00:00 1,0 0,4 - - 9 5 NNO 1026,6 3,3 0 0,0
21.02.2018 07:00:00 0,7 0,1 - - 8 4 NO 1026,3 2,9 0 0,0
21.02.2018 06:00:00 1,1 0,3 - - 8 4 NO 1026,3 3,4 0 0,0
21.02.2018 05:00:00 1,7 0,7 - - 9 5 NO 1026,0 3,6 0 0,0
21.02.2018 04:00:00 2,3 1,1 - - 9 5 NO 1025,9 4,7 0 0,0
21.02.2018 03:00:00 3,2 1,9 - - 11 6 NNO 1025,7 5 0 0,0
21.02.2018 02:00:00 3,4 1,6 - - 8 4 NO 1025,4 8 0 0,0
21.02.2018 01:00:00 4,3 2,3 - - 5 3 NO 1025,2 9 0 0,0
21.02.2018 00:00:00 4,7 2,5 - - 16 9 ONO 1024,5 11 - 0,0
20.02.2018 23:00:00 5,2 3,6 - - 13 7 ONO 1023,8 21 0 0,0
20.02.2018 22:00:00 5,7 3,2 - - 16 9 NO 1022,6 45 0 0,0
20.02.2018 21:00:00 6,0 4,9 - - 15 8 NNO 1021,8 30 0 0,0
20.02.2018 20:00:00 6,2 4,6 - - 18 10 NNO 1021,2 8 0 0,2
20.02.2018 19:00:00 6,4 4,4 - - 22 12 N 1020,7 11 0 0,0
20.02.2018 18:00:00 6,5 4,5 - - 15 8 N 1020,4 15 0 0,0
20.02.2018 17:00:00 6,5 4,5 - - 15 8 NNO 1020,5 16 0 0,4
20.02.2018 16:00:00 7,7 4,4 - - 15 8 N 1019,8 12 6 0,4
20.02.2018 15:00:00 8,3 4,3 - - 18 10 N 1019,6 35 6 0,0
20.02.2018 14:00:00 7,8 5,4 - - 18 10 N 1019,6 30 0 0,0
20.02.2018 13:00:00 7,9 6,2 - - 18 10 N 1019,5 30 6 0,0
20.02.2018 12:00:00 8,0 7,0 - - 21 11 N 1019,4 13 0 0,2
20.02.2018 11:00:00 7,8 7,7 - - 4 2 NNW 1019,2 6 0 1,2
20.02.2018 10:00:00 7,4 7,2 - - 2 1 N 1018,9 4,0 0 0,2
20.02.2018 09:00:00 7,1 7,0 6,7 6,9 2 1 NO 1018,7 2,5 0 0,0
20.02.2018 08:00:00 7,0 6,9 - - 4 2 NNO 1018,5 3,5 0 0,2
20.02.2018 07:00:00 7,0 6,8 - - 4 2 NO 1018,0 6 0 0,0
20.02.2018 06:00:00 7,3 7,0 - - 4 2 NO 1017,8 3,1 0 0,0
20.02.2018 05:00:00 7,6 7,3 - - 5 3 NNO 1017,4 4,2 0 0,2
20.02.2018 04:00:00 7,9 7,5 - - 5 3 NNO 1016,9 4,5 0 0,0
20.02.2018 03:00:00 8,1 7,8 - - 9 5 NNO 1016,7 45 0 0,2
20.02.2018 02:00:00 8,5 8,2 - - 8 4 N 1016,6 3,4 0 0,0
20.02.2018 01:00:00 8,7 8,4 - - 8 4 NNW 1016,3 4,8 0 0,0
20.02.2018 00:00:00 8,9 8,6 - - 9 5 NNO 1016,3 3,6 - 0,2
19.02.2018 23:00:00 9,3 9,1 - - 8 4 N 1015,9 3,9 0 0,2
19.02.2018 22:00:00 9,5 9,2 - - 11 6 N 1015,8 3,0 0 0,0
19.02.2018 21:00:00 9,6 9,4 - - 11 6 N 1015,6 3,2 0 0,2
19.02.2018 20:00:00 9,8 9,6 - - 11 6 NNW 1015,7 2,4 0 0,2
19.02.2018 19:00:00 9,9 9,6 - - 5 3 NW 1015,7 2,4 0 0,0
19.02.2018 18:00:00 9,9 9,6 - - 5 3 NW 1015,5 2,8 0 0,2
19.02.2018 17:00:00 9,9 9,6 - - 9 5 NW 1015,3 6 0 0,0
19.02.2018 16:00:00 9,9 9,6 - - 9 5 NW 1015,3 8 0 0,0
19.02.2018 15:00:00 9,5 9,3 - - 9 5 NW 1015,5 7 0 0,0
19.02.2018 14:00:00 9,0 9,0 - - 8 4 WNW 1015,7 3,7 0 0,0
19.02.2018 13:00:00 8,4 8,4 - - 8 4 W 1016,2 3,2 0 0,2
19.02.2018 12:00:00 7,9 7,9 - - 8 4 W 1016,9 3,1 0 0,0
19.02.2018 11:00:00 7,8 7,8 - - 5 3 WZW 1017,2 4,0 0 0,4
19.02.2018 10:00:00 7,3 7,3 - - 5 3 WZW 1017,5 2,1 0 0,0
19.02.2018 09:00:00 7,2 7,2 6,0 6,9 5 3 ZW 1017,6 2,2 0 0,4
19.02.2018 08:00:00 7,0 7,0 - - 2 1 W 1017,8 2,0 0 0,0
19.02.2018 07:00:00 6,9 6,9 - - 4 2 WZW 1017,9 0,2 0 0,2
19.02.2018 06:00:00 6,9 6,9 - - 2 1 ZZW 1017,9 0,2 0 0,2
19.02.2018 05:00:00 6,9 6,9 - - 2 1 ZW 1017,9 0,2 0 0,0
19.02.2018 04:00:00 7,0 7,0 - - 2 1 ZZW 1018,3 0,2 0 0,2
19.02.2018 03:00:00 7,0 6,9 - - 4 2 ZZW 1018,6 0,2 0 0,0
19.02.2018 02:00:00 7,0 6,9 - - 4 2 Z 1019,0 0,4 0 0,2
19.02.2018 01:00:00 6,9 6,8 - - 5 3 ZZW 1019,4 0,3 0 0,2
19.02.2018 00:00:00 7,0 6,7 - - 8 4 ZZW 1020,0 0,9 - 0,2
18.02.2018 23:00:00 6,9 6,1 - - 5 3 ZW 1020,2 3,0 0 0,0
18.02.2018 22:00:00 6,8 5,6 - - 4 2 ZW 1020,4 12 0 0,0
18.02.2018 21:00:00 6,5 4,8 - - 2 1 OZO 1020,7 9 0 0,0
18.02.2018 20:00:00 6,7 4,9 - - 4 2 OZO 1021,2 11 0 0,0
18.02.2018 19:00:00 6,6 4,7 - - 0 0 N 1021,5 12 0 0,0
18.02.2018 18:00:00 6,9 4,7 - - 4 2 O 1021,6 15 0 0,0
18.02.2018 17:00:00 7,1 4,9 - - 5 3 ZO 1021,4 22 6 0,0
18.02.2018 16:00:00 7,9 5,0 - - 9 5 Z 1021,8 19 42 0,0
18.02.2018 15:00:00 8,9 5,0 - - 8 4 ZZO 1021,8 19 60 0,0
18.02.2018 14:00:00 9,5 4,5 - - 9 5 ZZO 1021,8 20 54 0,0
18.02.2018 13:00:00 9,5 6,0 - - 9 5 Z 1022,1 18 42 0,0
18.02.2018 12:00:00 9,0 5,0 - - 11 6 Z 1022,6 19 60 0,0
18.02.2018 11:00:00 9,6 5,6 - - 9 5 Z 1022,5 18 60 0,0
18.02.2018 10:00:00 8,5 6,6 - - 5 3 ZZO 1022,9 20 60 0,0
18.02.2018 09:00:00 4,6 4,6 5,5 6,9 4 2 O 1023,0 8 30 0,0
18.02.2018 08:00:00 2,4 2,3 - - 4 2 ONO 1023,5 4,8 0 0,0
18.02.2018 07:00:00 2,1 1,8 - - 2 1 O 1023,3 6 0 0,0
18.02.2018 06:00:00 3,0 2,8 - - 2 1 ZZO 1023,2 8 0 0,0
18.02.2018 05:00:00 3,2 3,0 - - 2 1 ZZO 1023,3 12 0 0,0
18.02.2018 04:00:00 2,2 1,8 - - 4 2 OZO 1023,5 8 0 0,0
18.02.2018 03:00:00 3,5 3,4 - - 5 3 Z 1023,8 12 0 0,0
18.02.2018 02:00:00 2,1 1,8 - - 4 2 ONO 1024,2 8 0 0,0
18.02.2018 01:00:00 1,7 1,2 - - 4 2 ZO 1024,0 9 0 0,0
18.02.2018 00:00:00 1,4 1,1 - - 4 2 O 1024,3 9 - 0,0
17.02.2018 23:00:00 0,8 0,3 - - 4 2 O 1024,3 9 0 0,0
17.02.2018 22:00:00 0,3 -0,7 - - 4 2 ONO 1024,4 11 0 0,0
17.02.2018 21:00:00 1,6 0,7 - - 2 1 ZZO 1024,3 11 0 0,0
17.02.2018 20:00:00 1,5 -0,1 - - 2 1 O 1024,2 14 0 0,0
17.02.2018 19:00:00 3,1 1,0 - - 2 1 Z 1024,1 7 0 0,0
17.02.2018 18:00:00 4,4 0,0 - - 5 3 ZW 1023,7 30 0 0,0
17.02.2018 17:00:00 6,8 -0,3 - - 8 4 WZW 1023,1 40 54 0,0
17.02.2018 16:00:00 9,0 1,0 - - 9 5 W 1022,8 30 60 0,0
17.02.2018 15:00:00 9,3 1,5 - - 9 5 Z 1022,7 23 60 0,0
17.02.2018 14:00:00 10,7 0,2 - - 5 3 Z 1022,5 21 60 0,0
17.02.2018 13:00:00 9,4 -0,6 - - 4 2 WNW 1022,7 40 60 0,0
17.02.2018 12:00:00 10,3 0,2 - - 4 2 OZO 1022,8 19 60 0,0
17.02.2018 11:00:00 9,3 1,9 - - 8 4 OZO 1022,7 26 60 0,0
17.02.2018 10:00:00 6,8 3,8 - - 5 3 ONO 1022,2 23 60 0,0
17.02.2018 09:00:00 3,2 3,1 5,7 6,9 5 3 ONO 1021,9 15 30 0,0
17.02.2018 08:00:00 1,3 1,1 - - 5 3 NO 1021,8 13 0 0,0
17.02.2018 07:00:00 1,3 1,0 - - 5 3 NO 1021,5 9 0 0,0
17.02.2018 06:00:00 2,0 1,6 - - 5 3 ONO 1021,3 11 0 0,0
17.02.2018 05:00:00 2,4 2,1 - - 5 3 NO 1021,3 11 0 0,0
17.02.2018 04:00:00 2,5 2,2 - - 5 3 NO 1021,2 11 0 0,0
17.02.2018 03:00:00 2,4 2,1 - - 4 2 ONO 1021,6 10 0 0,0
17.02.2018 02:00:00 2,6 2,4 - - 5 3 ONO 1022,2 12 0 0,0
17.02.2018 01:00:00 2,4 2,2 - - 5 3 ONO 1022,4 12 0 0,0
17.02.2018 00:00:00 2,3 2,0 - - 5 3 ONO 1022,7 8 - 0,0
16.02.2018 23:00:00 2,7 2,4 - - 5 3 NO 1023,4 8 0 0,0
16.02.2018 22:00:00 2,1 1,7 - - 4 2 ONO 1023,8 8 0 0,0
16.02.2018 21:00:00 2,1 1,5 - - 5 3 O 1024,1 9 0 0,0
16.02.2018 20:00:00 2,2 1,4 - - 5 3 ONO 1024,4 9 0 0,0
16.02.2018 19:00:00 3,2 2,0 - - 2 1 OZO 1025,3 11 0 0,0
16.02.2018 18:00:00 4,0 1,6 - - 4 2 ZZW 1025,4 16 0 0,0
16.02.2018 17:00:00 6,3 1,6 - - 8 4 ZZW 1025,1 29 30 0,0
16.02.2018 16:00:00 7,5 0,7 - - 5 3 ZW 1024,9 30 36 0,0
16.02.2018 15:00:00 9,4 0,5 - - 9 5 ZZW 1025,4 28 60 0,0
16.02.2018 14:00:00 9,4 -0,1 - - 9 5 ZW 1025,7 40 60 0,0
16.02.2018 13:00:00 9,1 1,1 - - 9 5 WZW 1026,4 18 60 0,0
16.02.2018 12:00:00 8,6 2,9 - - 5 3 W 1026,9 24 60 0,0
16.02.2018 11:00:00 7,7 2,8 - - 5 3 WZW 1027,0 20 60 0,2
16.02.2018 10:00:00 5,7 2,6 - - 4 2 ZZW 1026,9 15 60 0,0
16.02.2018 09:00:00 2,9 0,9 5,7 6,9 4 2 NNO 1026,5 18 30 0,0
16.02.2018 08:00:00 1,6 0,9 - - 5 3 NW 1025,9 20 0 0,0
16.02.2018 07:00:00 -0,4 -0,8 - - 4 2 WNW 1025,1 17 0 0,0
16.02.2018 06:00:00 -0,6 -1,3 - - 4 2 WZW 1024,7 12 0 0,0
16.02.2018 05:00:00 0,1 -0,9 - - 4 2 W 1024,3 17 0 0,0
16.02.2018 04:00:00 1,8 0,4 - - 5 3 WNW 1023,6 25 0 0,0
16.02.2018 03:00:00 1,7 -0,3 - - 5 3 W 1023,3 16 0 0,0
16.02.2018 02:00:00 2,6 0,4 - - 8 4 W 1022,4 16 0 0,0
16.02.2018 01:00:00 3,1 0,7 - - 11 6 W 1021,9 17 0 0,0
16.02.2018 00:00:00 2,9 0,8 - - 8 4 WZW 1021,2 16 - 0,0
15.02.2018 23:00:00 3,2 2,0 - - 5 3 WZW 1020,8 12 0 0,0
15.02.2018 22:00:00 3,5 2,1 - - 5 3 W 1019,8 14 0 0,0
15.02.2018 21:00:00 3,9 1,5 - - 8 4 W 1018,9 19 0 0,0
15.02.2018 20:00:00 4,9 1,8 - - 8 4 W 1018,3 30 0 0,0
15.02.2018 19:00:00 6,2 3,3 - - 8 4 W 1017,6 16 0 0,0
15.02.2018 18:00:00 6,9 3,7 - - 15 8 W 1016,7 17 0 0,0
15.02.2018 17:00:00 7,4 2,6 - - 11 6 WZW 1015,7 27 54 0,0
15.02.2018 16:00:00 9,3 2,3 - - 15 8 W 1014,5 28 60 0,0
15.02.2018 15:00:00 10,4 1,4 - - 13 7 W 1013,5 23 60 0,0
15.02.2018 14:00:00 10,4 1,8 - - 15 8 WNW 1012,9 30 60 0,0
15.02.2018 13:00:00 10,2 2,0 - - 13 7 WNW 1012,4 29 60 0,0

tt = temperatuur
td = dauwpunt
tt -20cm = temperatuur -20cm
tt -100cm = temperatuur -100cm
ff = windsnelheid
dd = windrichting
ppp = luchtdruk
vv = zicht
sd = Zonneschijnduur
rr = neerslag

Weerstations in de omgeving